[[[{"header":{"parameterUnit":"kt","parameterCategory":2,"dx":1,"dy":1,"la1":30.253999710083008,"la2":30.299108505249023,"lo1":-89.0895004272461,"lo2":-89.04439544677734,"nx":28,"ny":28,"refTime":"2022-09-25T21:00:00:Z","depth":"0","parameterNumber":2,"parameterNumberName":"U-component_of_CURRENTS"},"data":[-0.2635,-0.258,-0.256,-0.2402,-0.237,-0.2173,-0.2052,-0.1943,-0.1911,-0.1851,-0.1913,-0.2014,-0.2046,-0.1886,-0.1716,-0.1623,-0.156,-0.1453,-0.1513,-0.1668,-0.1694,-0.1718,-0.1712,-0.1475,-0.1475,-0.126,-0.1259,-0.1258,-0.2689,-0.2676,-0.2691,-0.266,-0.2606,-0.2662,-0.2578,-0.2459,-0.2269,-0.2292,-0.2166,-0.2124,-0.1973,-0.1951,-0.186,-0.1763,-0.1723,-0.1711,-0.1658,-0.165,-0.1838,-0.1829,-0.1614,-0.1614,-0.1614,-0.1614,-0.1614,-0.1614,-0.2787,-0.2776,-0.2785,-0.2799,-0.2837,-0.2787,-0.2716,-0.2724,-0.2638,-0.2467,-0.2484,-0.2359,-0.2267,-0.2174,-0.2123,-0.2035,-0.2068,-0.1963,-0.1978,-0.1957,-0.1913,-0.2135,-0.1972,-0.1973,-0.1975,-0.1976,-0.1977,0,-0.2832,-0.2836,-0.2865,-0.289,-0.2923,-0.2954,-0.2966,-0.2948,-0.2925,-0.2869,-0.2709,-0.2623,-0.2529,-0.2389,-0.2344,-0.2291,-0.2276,-0.2289,-0.2286,-0.212,-0.2074,-0.2042,-0.2321,-0.2164,-0.2166,-0.2168,-0.217,-0.2171,-0.2856,-0.2867,-0.2916,-0.294,-0.2965,-0.3013,-0.304,-0.3079,-0.3056,-0.298,-0.2921,-0.2841,-0.2729,-0.2626,-0.2572,-0.2493,-0.2475,-0.2353,-0.2356,-0.2342,-0.235,-0.233,-0.2307,-0.2199,-0.2195,-0.2192,-0.219,0,-0.2859,-0.2893,-0.2925,-0.2976,-0.2997,-0.3015,-0.3078,-0.3084,-0.308,-0.3025,-0.3009,-0.2961,-0.2862,-0.284,-0.275,-0.2725,-0.2585,-0.2611,-0.2518,-0.2496,-0.2391,-0.2405,-0.2218,-0.2174,-0.2475,-0.2473,-0.2472,0,-0.2872,-0.2898,-0.2937,-0.2964,-0.2998,-0.3036,-0.3065,-0.3069,-0.3073,-0.3036,-0.3034,-0.298,-0.2956,-0.2903,-0.2867,-0.2768,-0.2784,-0.2701,-0.269,-0.261,-0.2601,-0.256,-0.257,-0.2736,-0.2737,-0.2737,-0.2738,0,-0.2854,-0.291,-0.2944,-0.2964,-0.3024,-0.3039,-0.3068,-0.3076,-0.3089,-0.3058,-0.304,-0.3006,-0.2976,-0.2932,-0.2887,-0.2904,-0.28,-0.2816,-0.2731,-0.2728,-0.2611,-0.26,-0.2493,-0.2739,-0.2739,-0.2739,-0.274,0,-0.2861,-0.2893,-0.2941,-0.2983,-0.2999,-0.3031,-0.3057,-0.3087,-0.3077,-0.3072,-0.305,-0.3036,-0.2997,-0.3001,-0.293,-0.2968,-0.2928,-0.2898,-0.2894,-0.2842,-0.2859,-0.2678,-0.2596,-0.2577,-0.2858,-0.2859,-0.286,0,-0.2833,-0.2883,-0.2908,-0.2959,-0.2989,-0.3017,-0.3042,-0.3067,-0.3072,-0.3068,-0.3048,-0.3045,-0.3053,-0.3046,-0.3018,-0.2993,-0.295,-0.3,-0.2923,-0.292,-0.2881,-0.2832,-0.2725,-0.2623,-0.2876,-0.2874,-0.2873,0,-0.281,-0.2858,-0.2862,-0.2881,-0.2937,-0.2975,-0.3003,-0.3038,-0.3038,-0.3061,-0.3054,-0.3066,-0.305,-0.3054,-0.3056,-0.3024,-0.2974,-0.3031,-0.3029,-0.2987,-0.2901,-0.2859,-0.2844,-0.2988,-0.2987,-0.2985,-0.2885,0,-0.2802,-0.2823,-0.284,-0.2885,-0.292,-0.2957,-0.2997,-0.3016,-0.303,-0.3044,-0.3049,-0.3056,-0.3063,-0.3067,-0.3078,-0.3053,-0.3052,-0.3062,-0.3055,-0.3041,-0.3,-0.299,-0.3103,-0.3103,-0.3103,-0.3103,0,0,-0.2762,-0.2797,-0.282,-0.2853,-0.2882,-0.2914,-0.2952,-0.2975,-0.3028,-0.3028,-0.3032,-0.3058,-0.307,-0.3073,-0.307,-0.3089,-0.3071,-0.3091,-0.3056,-0.3051,-0.3046,-0.3006,-0.2997,-0.3103,-0.3103,-0.3103,-0.3103,0,-0.2765,-0.278,-0.2802,-0.2835,-0.2883,-0.2914,-0.2926,-0.2979,-0.2986,-0.3028,-0.3026,-0.3026,-0.3079,-0.307,-0.3078,-0.3091,-0.308,-0.3106,-0.3089,-0.3057,-0.3052,-0.3048,-0.3008,-0.3,-0.3103,-0.3103,-0.3103,0,-0.2751,-0.2778,-0.279,-0.2845,-0.2874,-0.2914,-0.2921,-0.2961,-0.2986,-0.2997,-0.3023,-0.3034,-0.3051,-0.3072,-0.3082,-0.3079,-0.3077,-0.3104,-0.3104,-0.309,-0.3056,-0.3051,-0.3047,-0.3104,-0.3104,-0.3104,0,0,-0.2751,-0.277,-0.2825,-0.2851,-0.2869,-0.2911,-0.2936,-0.2953,-0.2985,-0.2993,-0.3012,-0.3024,-0.3043,-0.3053,-0.3073,-0.3102,-0.3078,-0.3105,-0.3105,-0.3105,-0.309,-0.3057,-0.3052,-0.3104,-0.3104,-0.3104,0,0,-0.2755,-0.2804,-0.2808,-0.2842,-0.2885,-0.294,-0.2956,-0.2973,-0.2995,-0.2985,-0.3004,-0.3009,-0.3032,-0.3042,-0.3041,-0.3066,-0.3065,-0.3067,-0.3063,-0.3063,-0.3063,-0.304,-0.304,0,0,0,0,0,-0.2781,-0.28,-0.2804,-0.2815,-0.2881,-0.294,-0.295,-0.2968,-0.2961,-0.2974,-0.2984,-0.2988,-0.3034,-0.3034,-0.3044,-0.3049,-0.3105,-0.3105,-0.3105,-0.3107,-0.3107,-0.3107,0,0,0,0,0,0,-0.2786,-0.2799,-0.2804,-0.2859,-0.2875,-0.2939,-0.2928,-0.2933,-0.2959,-0.2957,-0.2986,-0.2989,-0.2999,-0.303,-0.3039,-0.3043,-0.3037,-0.3105,-0.3105,-0.3105,-0.3107,-0.3107,-0.3107,0,0,0,0,0,-0.279,-0.2801,-0.2895,-0.2859,-0.2873,-0.2909,-0.2926,-0.293,-0.2945,-0.2977,-0.298,-0.2957,-0.2999,-0.3007,-0.3036,-0.3038,-0.3031,-0.3035,-0.3105,-0.3105,-0.3105,-0.3107,0,0,0,0,0,0,-0.2793,-0.2804,-0.2899,-0.2905,-0.2843,-0.2906,-0.2913,-0.2928,-0.2962,-0.2967,-0.2948,-0.2946,-0.3,-0.3006,-0.3012,-0.3035,-0.3027,-0.303,-0.3032,-0.3105,-0.3105,-0.3105,0,0,0,0,0,0,-0.2799,-0.2809,-0.2902,-0.288,-0.2884,-0.2902,-0.2909,-0.2947,-0.2962,-0.293,-0.2931,-0.2947,-0.2987,-0.3006,-0.301,-0.307,-0.3023,-0.3026,-0.3028,-0.3029,-0.3105,-0.3105,0,0,0,0,0,0,-0.2804,-0.2812,-0.2879,-0.2881,-0.2884,-0.2949,-0.2936,-0.2996,-0.2959,-0.2928,-0.2956,-0.2954,-0.2987,-0.2992,-0.3009,-0.3067,-0.3069,-0.3023,-0.3025,-0.3027,-0.3028,0,0,0,0,0,0,0,-0.2808,-0.2743,-0.2868,-0.2882,-0.2885,-0.2961,-0.2962,-0.2963,-0.2959,-0.2957,-0.2956,-0.2954,-0.3005,-0.3008,-0.3012,-0.3065,0,0,-0.3023,-0.3024,0,0,0,0,0,0,0,0,-0.274,-0.2742,-0.2868,-0.287,-0.2871,-0.2961,-0.2962,-0.2963,-0.2959,-0.2958,-0.2956,-0.2955,-0.3006,-0.3009,-0.3012,0,0,0,0,0,0,0,0,0,0,0,0,0,0,0,-0.2869,-0.287,0,-0.2961,-0.2962,-0.2963,-0.2959,-0.2958,-0.2957,-0.2956,-0.3007,-0.3009,-0.3011,0,0,0,0,0,0,0,0,0,0,0,0,0,0,0,0,0,0,0,0,0,0,0,0,0,0,0,0,0,0,0,0,0,0,0,0,0,0,0,0,0,0,0,0,0,0,0,0,0,0,0,0,0,0,0,0,0,0,0,0,0,0,0,0,0,0,0,0,0]}],[{"header":{"parameterUnit":"kt","parameterCategory":2,"dx":1,"dy":1,"la1":30.253999710083008,"la2":30.299108505249023,"lo1":-89.0895004272461,"lo2":-89.04439544677734,"nx":28,"ny":28,"refTime":"2022-09-25T21:00:00:Z","depth":"0","parameterNumber":3,"parameterNumberName":"V-component_of_CURRENTS"},"data":[-0.1569,-0.1636,-0.1661,-0.1634,-0.1624,-0.1528,-0.1468,-0.146,-0.1446,-0.1449,-0.1421,-0.141,-0.1166,-0.0852,-0.0733,-0.0718,-0.0705,-0.0653,-0.0609,-0.0704,-0.0696,-0.0689,-0.0727,-0.0758,-0.0758,-0.064,-0.0639,-0.0639,-0.1549,-0.1594,-0.1659,-0.1685,-0.1656,-0.1656,-0.1589,-0.1538,-0.1468,-0.1455,-0.1384,-0.126,-0.1114,-0.0944,-0.0727,-0.0658,-0.0637,-0.0622,-0.0608,-0.0623,-0.0651,-0.069,-0.0714,-0.0714,-0.0714,-0.0714,-0.0714,-0.0714,-0.1514,-0.1559,-0.1615,-0.1665,-0.1679,-0.1639,-0.1605,-0.1571,-0.1496,-0.1388,-0.1321,-0.1239,-0.1064,-0.0785,-0.0687,-0.0564,-0.0481,-0.054,-0.0513,-0.0444,-0.0487,-0.0514,-0.0464,-0.0463,-0.0462,-0.0461,-0.046,0,-0.1479,-0.1492,-0.1543,-0.161,-0.1632,-0.1623,-0.1602,-0.1566,-0.1442,-0.138,-0.1267,-0.1191,-0.0984,-0.0849,-0.0639,-0.0538,-0.0472,-0.0447,-0.047,-0.0585,-0.0544,-0.056,-0.0581,-0.0535,-0.0535,-0.0534,-0.0534,-0.0533,-0.141,-0.1451,-0.1505,-0.154,-0.1563,-0.1577,-0.1563,-0.1481,-0.1424,-0.1288,-0.1242,-0.1109,-0.1005,-0.0783,-0.0632,-0.0471,-0.0447,-0.044,-0.0458,-0.05,-0.0477,-0.0421,-0.0444,-0.0527,-0.0528,-0.0528,-0.0529,0,-0.1369,-0.1394,-0.1453,-0.1476,-0.1484,-0.1502,-0.1473,-0.1429,-0.1343,-0.1261,-0.1231,-0.1082,-0.0955,-0.0818,-0.0668,-0.059,-0.0474,-0.0434,-0.0535,-0.0533,-0.0504,-0.0492,-0.0361,-0.038,-0.0352,-0.0351,-0.035,0,-0.1315,-0.1353,-0.1385,-0.1424,-0.1447,-0.1431,-0.1412,-0.1358,-0.1262,-0.1199,-0.1097,-0.1028,-0.0894,-0.0797,-0.0705,-0.058,-0.0578,-0.05,-0.0486,-0.0564,-0.057,-0.0576,-0.0567,-0.0493,-0.0493,-0.0494,-0.0494,0,-0.1256,-0.131,-0.1361,-0.1376,-0.1386,-0.138,-0.1363,-0.1273,-0.1223,-0.1116,-0.107,-0.0953,-0.0899,-0.081,-0.0699,-0.0708,-0.0575,-0.0577,-0.0513,-0.0512,-0.0553,-0.0558,-0.0554,-0.0495,-0.0495,-0.0495,-0.0495,0,-0.1217,-0.1259,-0.1326,-0.1339,-0.1345,-0.1354,-0.1291,-0.1263,-0.1151,-0.1094,-0.101,-0.0945,-0.085,-0.0836,-0.0707,-0.074,-0.0685,-0.0636,-0.0633,-0.0607,-0.061,-0.0621,-0.0607,-0.0638,-0.0599,-0.06,-0.0601,0,-0.1155,-0.1233,-0.124,-0.1284,-0.1317,-0.1273,-0.1243,-0.1195,-0.1132,-0.1068,-0.0976,-0.0917,-0.0877,-0.0844,-0.0792,-0.0722,-0.0681,-0.0721,-0.0637,-0.0634,-0.0623,-0.06,-0.068,-0.0621,-0.0614,-0.0612,-0.0611,0,-0.111,-0.1168,-0.1174,-0.1195,-0.1202,-0.121,-0.1183,-0.114,-0.11,-0.1056,-0.1,-0.0919,-0.0874,-0.0837,-0.0786,-0.0743,-0.07,-0.0735,-0.0733,-0.0704,-0.0629,-0.0619,-0.0609,-0.0696,-0.0695,-0.0694,-0.0621,0,-0.1084,-0.1114,-0.1134,-0.1159,-0.1164,-0.1182,-0.115,-0.1126,-0.109,-0.1049,-0.0982,-0.0923,-0.0859,-0.0838,-0.0806,-0.0751,-0.075,-0.0745,-0.0727,-0.0725,-0.0695,-0.0688,-0.0772,-0.0772,-0.0771,-0.0771,0,0,-0.1018,-0.1061,-0.1057,-0.1091,-0.1095,-0.1063,-0.109,-0.1061,-0.1034,-0.1,-0.0996,-0.09,-0.086,-0.0789,-0.0781,-0.0775,-0.0758,-0.0764,-0.0734,-0.0731,-0.0727,-0.0698,-0.0691,-0.0771,-0.077,-0.077,-0.077,0,-0.1009,-0.1015,-0.1049,-0.1055,-0.1063,-0.1045,-0.1053,-0.1038,-0.1011,-0.0996,-0.0944,-0.0899,-0.0862,-0.0805,-0.0775,-0.0775,-0.0742,-0.0773,-0.077,-0.0733,-0.073,-0.0727,-0.0698,-0.0692,-0.0769,-0.0769,-0.0769,0,-0.0971,-0.098,-0.0991,-0.1006,-0.1001,-0.1014,-0.0981,-0.0992,-0.0983,-0.0934,-0.0909,-0.0873,-0.0823,-0.0793,-0.078,-0.0773,-0.0728,-0.0749,-0.075,-0.074,-0.0701,-0.0698,-0.0695,-0.073,-0.073,-0.073,0,0,-0.0961,-0.0984,-0.098,-0.1001,-0.1005,-0.0985,-0.0984,-0.0971,-0.0949,-0.0939,-0.0901,-0.0862,-0.0824,-0.0805,-0.0777,-0.0759,-0.0733,-0.0745,-0.0746,-0.0748,-0.0739,-0.0701,-0.0698,-0.0729,-0.0729,-0.0729,0,0,-0.0947,-0.0955,-0.0948,-0.0976,-0.0972,-0.0952,-0.096,-0.0943,-0.092,-0.0915,-0.0863,-0.0852,-0.0826,-0.0806,-0.0808,-0.0761,-0.0753,-0.0752,-0.077,-0.0772,-0.0774,-0.0768,-0.0766,0,0,0,0,0,-0.093,-0.0958,-0.0952,-0.0954,-0.0955,-0.0959,-0.0957,-0.0932,-0.0914,-0.0922,-0.0883,-0.0855,-0.0792,-0.0793,-0.0786,-0.0772,-0.0727,-0.0727,-0.0728,-0.0747,-0.0749,-0.0751,0,0,0,0,0,0,-0.0931,-0.0935,-0.095,-0.0934,-0.0934,-0.0958,-0.0921,-0.0914,-0.0912,-0.0908,-0.0863,-0.0854,-0.0819,-0.0794,-0.0788,-0.0775,-0.0768,-0.0727,-0.0727,-0.0728,-0.0748,-0.075,-0.0751,0,0,0,0,0,-0.0932,-0.0935,-0.0947,-0.0933,-0.0933,-0.0908,-0.092,-0.0914,-0.091,-0.0864,-0.0855,-0.0893,-0.082,-0.0812,-0.079,-0.0779,-0.0772,-0.077,-0.0727,-0.0727,-0.0728,-0.0749,0,0,0,0,0,0,-0.0932,-0.0922,-0.0946,-0.0944,-0.0924,-0.0905,-0.0903,-0.0914,-0.0865,-0.0857,-0.0891,-0.0887,-0.0821,-0.0815,-0.0808,-0.0781,-0.0775,-0.0773,-0.0771,-0.0727,-0.0728,-0.0728,0,0,0,0,0,0,-0.092,-0.0921,-0.0945,-0.0936,-0.0933,-0.0903,-0.0902,-0.0883,-0.0864,-0.0892,-0.0889,-0.089,-0.0823,-0.0817,-0.0812,-0.0784,-0.0777,-0.0775,-0.0774,-0.0773,-0.0728,-0.0728,0,0,0,0,0,0,-0.0919,-0.092,-0.0936,-0.0934,-0.0931,-0.0907,-0.0884,-0.088,-0.0877,-0.0894,-0.0874,-0.0873,-0.0825,-0.082,-0.0814,-0.0789,-0.0785,-0.0777,-0.0776,-0.0775,-0.0774,0,0,0,0,0,0,0,-0.0919,-0.0925,-0.096,-0.0932,-0.0929,-0.0929,-0.0928,-0.0927,-0.0876,-0.0875,-0.0874,-0.0873,-0.079,-0.0787,-0.0785,-0.0793,0,0,-0.0778,-0.0777,0,0,0,0,0,0,0,0,-0.0924,-0.0925,-0.096,-0.0959,-0.0959,-0.0928,-0.0928,-0.0927,-0.0876,-0.0875,-0.0874,-0.0873,-0.0789,-0.0787,-0.0785,0,0,0,0,0,0,0,0,0,0,0,0,0,0,0,-0.0959,-0.0959,0,-0.0928,-0.0928,-0.0927,-0.0876,-0.0875,-0.0875,-0.0874,-0.0788,-0.0787,-0.0785,0,0,0,0,0,0,0,0,0,0,0,0,0,0,0,0,0,0,0,0,0,0,0,0,0,0,0,0,0,0,0,0,0,0,0,0,0,0,0,0,0,0,0,0,0,0,0,0,0,0,0,0,0,0,0,0,0,0,0,0,0,0,0,0,0,0,0,0,0]}]],[[{"header":{"parameterUnit":"kt","parameterCategory":2,"dx":1,"dy":1,"la1":30.253999710083008,"la2":30.299108505249023,"lo1":-89.0895004272461,"lo2":-89.04439544677734,"nx":28,"ny":28,"refTime":"2022-09-25T21:00:00:Z","depth":"2","parameterNumber":2,"parameterNumberName":"U-component_of_CURRENTS"},"data":[-0.2552,-0.2488,-0.2466,-0.2296,-0.2275,-0.2069,-0.1948,-0.1776,-0.1658,-0.1427,-0.1335,-0.1342,-0.1394,-0.1105,-0.1035,-0.0923,-0.1092,-0.089,-0.1466,-0.1447,-0.1484,-0.1578,-0.1553,0,0,0,0,0,-0.2609,-0.2605,-0.2616,-0.2582,-0.2513,-0.2587,-0.2503,-0.2346,-0.2117,-0.2046,-0.1879,-0.1613,-0.1453,-0.1457,-0.1285,-0.1275,-0.126,-0.1257,-0.1205,-0.1249,-0.1288,-0.1241,-0.0861,-0.086,-0.0858,-0.0856,0,0,-0.2717,-0.2704,-0.2711,-0.2722,-0.2761,-0.271,-0.2639,-0.2621,-0.2527,-0.2305,-0.2354,-0.2145,-0.2084,-0.1847,-0.1751,-0.1709,-0.1865,-0.1796,-0.181,-0.183,-0.181,-0.1793,-0.1582,-0.1585,-0.1587,-0.159,-0.1592,0,-0.2763,-0.2767,-0.2792,-0.2815,-0.2846,-0.2876,-0.2887,-0.2867,-0.2846,-0.2786,-0.2631,-0.2543,-0.2422,-0.2203,-0.2146,-0.2083,-0.2171,-0.2067,-0.2455,-0.1979,-0.1961,-0.1966,-0.1995,-0.1787,-0.1792,-0.1795,-0.1797,-0.1799,-0.2787,-0.2798,-0.2843,-0.2866,-0.2888,-0.2933,-0.296,-0.2998,-0.2976,-0.2904,-0.2847,-0.2774,-0.266,-0.2564,-0.2473,-0.2385,-0.2501,-0.2169,-0.2153,-0.251,-0.2512,-0.2525,-0.2536,-0.1847,-0.1841,-0.1836,-0.1832,0,-0.2791,-0.2824,-0.2853,-0.29,-0.2919,-0.2935,-0.2997,-0.3002,-0.3001,-0.2948,-0.2934,-0.2892,-0.2797,-0.2779,-0.2694,-0.2669,-0.2596,-0.2559,-0.2336,-0.2301,-0.2543,-0.2552,-0.2428,-0.2426,-0.2424,-0.2422,-0.242,0,-0.2804,-0.2828,-0.2865,-0.2891,-0.292,-0.2957,-0.2984,-0.2987,-0.2993,-0.2958,-0.2959,-0.2908,-0.2889,-0.284,-0.2807,-0.2711,-0.2728,-0.2645,-0.2635,-0.2443,-0.2424,-0.2734,-0.2741,-0.2683,-0.2683,-0.2684,-0.2685,0,-0.2787,-0.284,-0.2872,-0.2891,-0.2947,-0.296,-0.2987,-0.2996,-0.3009,-0.2981,-0.2965,-0.2935,-0.2908,-0.2867,-0.2826,-0.2843,-0.2744,-0.276,-0.2675,-0.2672,-0.2446,-0.2426,-0.2686,-0.2686,-0.2686,-0.2686,-0.2687,0,-0.2794,-0.2825,-0.287,-0.2908,-0.2924,-0.2954,-0.2978,-0.3006,-0.2998,-0.2995,-0.2975,-0.2964,-0.2928,-0.2933,-0.2866,-0.2904,-0.2866,-0.2837,-0.2833,-0.278,-0.2797,-0.2502,-0.2395,-0.2798,-0.2799,-0.28,-0.2801,0,-0.2767,-0.2816,-0.2839,-0.2887,-0.2916,-0.2942,-0.2966,-0.2991,-0.2996,-0.2994,-0.2976,-0.2974,-0.2982,-0.2977,-0.2951,-0.2927,-0.2887,-0.2934,-0.2861,-0.2858,-0.2818,-0.2771,-0.2536,-0.2426,-0.2816,-0.2814,-0.2813,0,-0.2745,-0.2791,-0.2795,-0.2813,-0.2868,-0.2904,-0.2931,-0.2965,-0.2965,-0.2988,-0.2982,-0.2994,-0.298,-0.2984,-0.2986,-0.2956,-0.291,-0.2964,-0.2962,-0.2922,-0.2841,-0.2797,-0.2783,-0.2925,-0.2924,-0.2922,-0.2825,0,-0.2736,-0.2757,-0.2774,-0.2817,-0.2851,-0.2887,-0.2926,-0.2945,-0.2959,-0.2974,-0.2979,-0.2986,-0.2992,-0.2997,-0.3008,-0.2984,-0.2983,-0.2994,-0.2986,-0.2973,-0.2934,-0.2924,-0.3032,-0.3032,-0.3032,-0.3032,0,0,-0.2696,-0.2731,-0.2754,-0.2786,-0.2814,-0.2846,-0.2883,-0.2906,-0.2958,-0.2958,-0.2963,-0.2988,-0.2999,-0.3001,-0.2999,-0.3017,-0.3001,-0.302,-0.2987,-0.2983,-0.2978,-0.2939,-0.2931,-0.3032,-0.3032,-0.3032,-0.3032,0,-0.2699,-0.2714,-0.2736,-0.2769,-0.2816,-0.2846,-0.2858,-0.291,-0.2918,-0.2959,-0.2956,-0.2957,-0.3008,-0.2999,-0.3006,-0.3019,-0.3009,-0.3034,-0.3018,-0.2989,-0.2984,-0.298,-0.2941,-0.2933,-0.3031,-0.3031,-0.3031,0,-0.2685,-0.2712,-0.2724,-0.2778,-0.2806,-0.2845,-0.2852,-0.2892,-0.2917,-0.2927,-0.2953,-0.2963,-0.2979,-0.3,-0.3009,-0.3007,-0.3005,-0.3031,-0.3032,-0.3016,-0.2985,-0.298,-0.2976,-0.303,-0.303,-0.303,0,0,-0.2684,-0.2703,-0.2757,-0.2783,-0.2801,-0.2843,-0.2867,-0.2885,-0.2915,-0.2923,-0.2942,-0.2954,-0.2971,-0.2981,-0.3,-0.3029,-0.3005,-0.3031,-0.3032,-0.3032,-0.3017,-0.2986,-0.2982,-0.303,-0.303,-0.303,0,0,-0.2688,-0.2736,-0.274,-0.2774,-0.2816,-0.287,-0.2886,-0.2903,-0.2925,-0.2916,-0.2933,-0.2938,-0.2961,-0.297,-0.2969,-0.2994,-0.2992,-0.2994,-0.2992,-0.2992,-0.2992,-0.2968,-0.2968,0,0,0,0,0,-0.2713,-0.2732,-0.2736,-0.2747,-0.2812,-0.2869,-0.2879,-0.2898,-0.2891,-0.2904,-0.2914,-0.2918,-0.2962,-0.2962,-0.2972,-0.2977,-0.3031,-0.3031,-0.303,-0.3035,-0.3035,-0.3035,0,0,0,0,0,0,-0.2718,-0.2731,-0.2736,-0.2789,-0.2805,-0.2868,-0.2858,-0.2863,-0.2889,-0.2888,-0.2916,-0.2919,-0.2928,-0.2959,-0.2967,-0.2971,-0.2965,-0.3031,-0.3031,-0.303,-0.3035,-0.3035,-0.3035,0,0,0,0,0,-0.2722,-0.2732,-0.2826,-0.279,-0.2803,-0.284,-0.2856,-0.286,-0.2876,-0.2906,-0.2909,-0.2888,-0.2928,-0.2936,-0.2964,-0.2967,-0.2959,-0.2962,-0.3031,-0.3031,-0.303,-0.3035,0,0,0,0,0,0,-0.2725,-0.2736,-0.2829,-0.2835,-0.2774,-0.2836,-0.2844,-0.2858,-0.2892,-0.2897,-0.2878,-0.2876,-0.2929,-0.2935,-0.294,-0.2964,-0.2955,-0.2958,-0.296,-0.3031,-0.303,-0.303,0,0,0,0,0,0,-0.2731,-0.274,-0.2832,-0.2811,-0.2815,-0.2833,-0.2839,-0.2876,-0.2891,-0.2861,-0.2861,-0.2877,-0.2916,-0.2934,-0.2939,-0.2996,-0.2951,-0.2954,-0.2956,-0.2958,-0.303,-0.303,0,0,0,0,0,0,-0.2736,-0.2744,-0.281,-0.2812,-0.2815,-0.2879,-0.2865,-0.2924,-0.2889,-0.2858,-0.2886,-0.2884,-0.2916,-0.2921,-0.2938,-0.2994,-0.2996,-0.2951,-0.2953,-0.2955,-0.2956,0,0,0,0,0,0,0,-0.2739,-0.2675,-0.2799,-0.2813,-0.2816,-0.289,-0.2891,-0.2892,-0.2889,-0.2888,-0.2886,-0.2885,-0.2934,-0.2937,-0.2941,-0.2991,0,0,-0.2951,-0.2952,0,0,0,0,0,0,0,0,-0.2673,-0.2675,-0.2799,-0.28,-0.2802,-0.289,-0.2891,-0.2892,-0.2889,-0.2888,-0.2886,-0.2885,-0.2935,-0.2938,-0.294,0,0,0,0,0,0,0,0,0,0,0,0,0,0,0,-0.2799,-0.28,0,-0.289,-0.2891,-0.2892,-0.2889,-0.2888,-0.2887,-0.2886,-0.2936,-0.2938,-0.294,0,0,0,0,0,0,0,0,0,0,0,0,0,0,0,0,0,0,0,0,0,0,0,0,0,0,0,0,0,0,0,0,0,0,0,0,0,0,0,0,0,0,0,0,0,0,0,0,0,0,0,0,0,0,0,0,0,0,0,0,0,0,0,0,0,0,0,0,0]}],[{"header":{"parameterUnit":"kt","parameterCategory":2,"dx":1,"dy":1,"la1":30.253999710083008,"la2":30.299108505249023,"lo1":-89.0895004272461,"lo2":-89.04439544677734,"nx":28,"ny":28,"refTime":"2022-09-25T21:00:00:Z","depth":"2","parameterNumber":3,"parameterNumberName":"V-component_of_CURRENTS"},"data":[-0.1448,-0.1511,-0.1536,-0.1505,-0.1506,-0.1393,-0.1332,-0.1231,-0.1121,-0.0987,-0.0868,-0.0739,-0.0574,-0.0351,-0.0201,-0.0058,-0.0071,-0.0035,-0.0162,-0.0204,-0.0213,-0.0132,-0.0163,0,0,0,0,0,-0.1428,-0.1482,-0.1548,-0.1577,-0.154,-0.1554,-0.1487,-0.1389,-0.1279,-0.1169,-0.1052,-0.0818,-0.0606,-0.042,-0.0151,-0.0039,-0.0031,-0.0012,-0.0024,-0.0034,-0.0042,-0.0054,0.0049,0.005,0.0051,0.0052,0,0,-0.1398,-0.1445,-0.1502,-0.1555,-0.1572,-0.1535,-0.1503,-0.1446,-0.1364,-0.1197,-0.1163,-0.0991,-0.0828,-0.0476,-0.0316,-0.0149,-0.0188,-0.014,-0.0144,-0.0148,-0.0165,-0.0183,-0.0092,-0.0092,-0.0092,-0.0093,-0.0093,0,-0.1362,-0.1376,-0.1428,-0.1498,-0.1522,-0.1518,-0.15,-0.1464,-0.1343,-0.1276,-0.1161,-0.1081,-0.0849,-0.0641,-0.0419,-0.0317,-0.0254,-0.0207,-0.0274,-0.0232,-0.0251,-0.0247,-0.0257,-0.017,-0.0171,-0.0172,-0.0172,-0.0173,-0.1292,-0.1332,-0.1389,-0.1426,-0.145,-0.1469,-0.1458,-0.138,-0.1324,-0.1189,-0.1143,-0.101,-0.0901,-0.0677,-0.0498,-0.0328,-0.0341,-0.023,-0.0235,-0.032,-0.0313,-0.0322,-0.033,-0.0181,-0.018,-0.0179,-0.0179,0,-0.1249,-0.1274,-0.1335,-0.136,-0.137,-0.1391,-0.1367,-0.1326,-0.1242,-0.1162,-0.1133,-0.0984,-0.0855,-0.0717,-0.0566,-0.0488,-0.037,-0.033,-0.0328,-0.0313,-0.0331,-0.0338,-0.0251,-0.025,-0.0249,-0.0248,-0.0247,0,-0.1193,-0.1233,-0.1265,-0.1306,-0.1332,-0.1317,-0.1304,-0.1252,-0.116,-0.1098,-0.0998,-0.093,-0.0794,-0.0696,-0.0603,-0.0477,-0.0475,-0.0397,-0.0382,-0.037,-0.0369,-0.0422,-0.0426,-0.0389,-0.039,-0.039,-0.0391,0,-0.1133,-0.1188,-0.124,-0.1256,-0.1268,-0.1264,-0.125,-0.1164,-0.1117,-0.1013,-0.0968,-0.0854,-0.0799,-0.071,-0.0598,-0.0606,-0.0472,-0.0472,-0.0409,-0.0408,-0.0359,-0.0356,-0.0391,-0.0392,-0.0392,-0.0392,-0.0392,0,-0.1092,-0.1134,-0.1201,-0.1217,-0.1224,-0.1235,-0.1177,-0.1152,-0.1044,-0.0989,-0.0907,-0.0842,-0.0749,-0.0734,-0.0606,-0.0638,-0.0582,-0.0532,-0.0528,-0.0501,-0.05,-0.0415,-0.0384,-0.0489,-0.049,-0.0491,-0.0491,0,-0.1029,-0.1107,-0.1112,-0.1159,-0.1192,-0.115,-0.1123,-0.1078,-0.1018,-0.0956,-0.0867,-0.081,-0.077,-0.0738,-0.0688,-0.0616,-0.0575,-0.0615,-0.0526,-0.0523,-0.0513,-0.0494,-0.0471,-0.0402,-0.0504,-0.0502,-0.0501,0,-0.0982,-0.1038,-0.1044,-0.1066,-0.1073,-0.1083,-0.1059,-0.1019,-0.0982,-0.0939,-0.0887,-0.0809,-0.0765,-0.0728,-0.0677,-0.0635,-0.0594,-0.0624,-0.0621,-0.0591,-0.0521,-0.0512,-0.0503,-0.0588,-0.0587,-0.0586,-0.0511,0,-0.0953,-0.0983,-0.1003,-0.1029,-0.1033,-0.1053,-0.1021,-0.1,-0.0965,-0.0925,-0.0863,-0.0804,-0.0741,-0.0722,-0.0689,-0.0637,-0.0634,-0.0627,-0.0607,-0.0609,-0.0577,-0.057,-0.065,-0.065,-0.0649,-0.0649,0,0,-0.0887,-0.0929,-0.0924,-0.0958,-0.0963,-0.093,-0.0958,-0.093,-0.0904,-0.0872,-0.0867,-0.0773,-0.0734,-0.0667,-0.0661,-0.0653,-0.0635,-0.0642,-0.0616,-0.0613,-0.061,-0.058,-0.0573,-0.0648,-0.0648,-0.0648,-0.0648,0,-0.0876,-0.0882,-0.0916,-0.0922,-0.0929,-0.0911,-0.092,-0.0904,-0.0879,-0.0865,-0.0813,-0.0771,-0.0734,-0.0678,-0.0649,-0.0652,-0.0617,-0.065,-0.0651,-0.0614,-0.0612,-0.0609,-0.0579,-0.0573,-0.0647,-0.0647,-0.0647,0,-0.0837,-0.0845,-0.0856,-0.0871,-0.0865,-0.0878,-0.0844,-0.0856,-0.0848,-0.0797,-0.0776,-0.0739,-0.069,-0.0662,-0.0649,-0.0641,-0.06,-0.0619,-0.0621,-0.0612,-0.0573,-0.057,-0.0568,-0.0595,-0.0595,-0.0595,0,0,-0.0826,-0.0849,-0.0844,-0.0865,-0.0869,-0.0848,-0.0847,-0.0834,-0.0812,-0.0802,-0.0765,-0.0727,-0.069,-0.0671,-0.0643,-0.0626,-0.0599,-0.0614,-0.0616,-0.0619,-0.0611,-0.0572,-0.057,-0.0594,-0.0594,-0.0594,0,0,-0.0812,-0.0819,-0.0811,-0.0839,-0.0835,-0.0813,-0.0822,-0.0805,-0.0783,-0.0778,-0.0726,-0.0715,-0.0692,-0.067,-0.0671,-0.0628,-0.0617,-0.0617,-0.0639,-0.0641,-0.0644,-0.0639,-0.0628,0,0,0,0,0,-0.0793,-0.0821,-0.0815,-0.0818,-0.0817,-0.0821,-0.0818,-0.0794,-0.0776,-0.0785,-0.0746,-0.0718,-0.0656,-0.0656,-0.0648,-0.0638,-0.059,-0.0591,-0.0592,-0.0617,-0.062,-0.0622,0,0,0,0,0,0,-0.0794,-0.0798,-0.0814,-0.0796,-0.0796,-0.0819,-0.0782,-0.0775,-0.0775,-0.077,-0.0726,-0.0717,-0.0681,-0.0657,-0.0651,-0.0641,-0.063,-0.0591,-0.0591,-0.0592,-0.0618,-0.062,-0.0622,0,0,0,0,0,-0.0795,-0.0798,-0.0808,-0.0795,-0.0794,-0.0769,-0.0781,-0.0775,-0.0772,-0.0726,-0.0717,-0.0756,-0.0682,-0.0674,-0.0653,-0.0645,-0.0634,-0.0632,-0.0591,-0.0592,-0.0592,-0.0619,0,0,0,0,0,0,-0.0795,-0.0784,-0.0807,-0.0805,-0.0787,-0.0767,-0.0765,-0.0775,-0.0726,-0.0719,-0.0752,-0.0749,-0.0683,-0.0676,-0.067,-0.0648,-0.0637,-0.0635,-0.0634,-0.0591,-0.0592,-0.0592,0,0,0,0,0,0,-0.0783,-0.0783,-0.0806,-0.0798,-0.0795,-0.0765,-0.0763,-0.0744,-0.0725,-0.0754,-0.0751,-0.0751,-0.0685,-0.0679,-0.0674,-0.0644,-0.064,-0.0638,-0.0636,-0.0635,-0.0592,-0.0592,0,0,0,0,0,0,-0.0782,-0.0783,-0.0798,-0.0796,-0.0793,-0.0768,-0.0745,-0.074,-0.0738,-0.0756,-0.0736,-0.0735,-0.0688,-0.0682,-0.0676,-0.0649,-0.0645,-0.064,-0.0638,-0.0637,-0.0637,0,0,0,0,0,0,0,-0.0782,-0.0789,-0.0821,-0.0794,-0.0791,-0.0789,-0.0788,-0.0787,-0.0738,-0.0737,-0.0736,-0.0735,-0.0652,-0.065,-0.0648,-0.0653,0,0,-0.064,-0.0639,0,0,0,0,0,0,0,0,-0.0788,-0.0789,-0.0821,-0.0821,-0.0821,-0.0789,-0.0788,-0.0787,-0.0738,-0.0737,-0.0736,-0.0736,-0.0652,-0.065,-0.0648,0,0,0,0,0,0,0,0,0,0,0,0,0,0,0,-0.0821,-0.0821,0,-0.0788,-0.0788,-0.0787,-0.0738,-0.0737,-0.0736,-0.0736,-0.0651,-0.065,-0.0648,0,0,0,0,0,0,0,0,0,0,0,0,0,0,0,0,0,0,0,0,0,0,0,0,0,0,0,0,0,0,0,0,0,0,0,0,0,0,0,0,0,0,0,0,0,0,0,0,0,0,0,0,0,0,0,0,0,0,0,0,0,0,0,0,0,0,0,0,0]}]],[[{"header":{"parameterUnit":"kt","parameterCategory":2,"dx":1,"dy":1,"la1":30.253999710083008,"la2":30.299108505249023,"lo1":-89.0895004272461,"lo2":-89.04439544677734,"nx":28,"ny":28,"refTime":"2022-09-25T21:00:00:Z","depth":"4","parameterNumber":2,"parameterNumberName":"U-component_of_CURRENTS"},"data":[-0.1615,-0.1601,-0.1555,-0.1243,-0.114,-0.0952,-0.096,-0.1082,-0.1076,-0.1302,-0.1302,-0.1467,-0.1477,-0.1589,-0.152,-0.1534,-0.156,-0.1678,-0.1674,-0.179,-0.1806,-0.182,-0.183,0,0,0,0,0,-0.1678,-0.164,-0.1595,-0.1493,-0.1375,-0.1325,-0.1302,-0.1361,-0.1518,-0.1448,-0.1572,-0.1557,-0.1575,-0.1638,-0.155,-0.1708,-0.1732,-0.1601,-0.1692,-0.18,-0.1818,-0.1821,0,0,0,0,0,0,-0.1762,-0.176,-0.1786,-0.1737,-0.1653,-0.1485,-0.153,-0.1478,-0.1481,-0.1688,-0.1678,-0.1782,-0.1887,-0.1838,-0.1813,-0.177,-0.1745,-0.1706,-0.1727,-0.1745,-0.1729,-0.1687,-0.1474,0,0,0,0,0,-0.1823,-0.1878,-0.1917,-0.1886,-0.1856,-0.1775,-0.1743,-0.1748,-0.1809,-0.1938,-0.1935,-0.1956,-0.1936,-0.1933,-0.1904,-0.1871,-0.2022,-0.1951,-0.196,-0.1982,-0.1968,-0.1973,-0.1988,-0.1884,-0.1886,-0.1888,-0.1889,0,-0.1892,-0.1919,-0.2008,-0.2,-0.2033,-0.2047,-0.1993,-0.2061,-0.2024,-0.2149,-0.2105,-0.2161,-0.2188,-0.2052,-0.2111,-0.2049,-0.2039,-0.1997,-0.2021,-0.1997,-0.1995,-0.2007,-0.2018,-0.1903,-0.1902,-0.19,-0.1899,0,-0.1919,-0.1992,-0.2038,-0.2115,-0.2127,-0.2139,-0.2154,-0.2115,-0.2213,-0.2202,-0.2221,-0.2299,-0.2282,-0.2308,-0.2284,-0.2233,-0.2172,-0.2122,-0.2285,-0.2286,-0.204,-0.2045,-0.1926,-0.1921,-0.1916,-0.1913,-0.191,0,-0.1971,-0.2009,-0.2098,-0.2122,-0.214,-0.2195,-0.2201,-0.2234,-0.2265,-0.2251,-0.2343,-0.2337,-0.2391,-0.2383,-0.237,-0.2275,-0.234,-0.2199,-0.2184,-0.2359,-0.2362,-0.2341,-0.2343,-0.2329,-0.233,-0.233,-0.2331,0,-0.1985,-0.2059,-0.2106,-0.2128,-0.219,-0.2212,-0.2236,-0.2274,-0.228,-0.2335,-0.2354,-0.2379,-0.2395,-0.2386,-0.2384,-0.2402,-0.2355,-0.2373,-0.2229,-0.2221,-0.2345,-0.2347,-0.2332,-0.2332,-0.2332,-0.2332,-0.2332,0,-0.2015,-0.2056,-0.2117,-0.2157,-0.2172,-0.2209,-0.2246,-0.2278,-0.2314,-0.2344,-0.2374,-0.24,-0.241,-0.2425,-0.241,-0.2437,-0.2416,-0.2407,-0.2404,-0.2271,-0.2271,-0.2363,-0.2367,-0.2368,-0.2368,-0.2369,-0.237,0,-0.1996,-0.206,-0.2093,-0.2148,-0.2177,-0.2215,-0.2244,-0.2285,-0.2324,-0.2355,-0.2376,-0.2408,-0.2426,-0.2444,-0.2445,-0.2447,-0.2426,-0.2455,-0.2406,-0.2403,-0.2287,-0.2261,-0.2461,-0.2379,-0.2378,-0.2377,-0.2376,0,-0.1973,-0.2048,-0.2059,-0.208,-0.2147,-0.2177,-0.2224,-0.2266,-0.2284,-0.2348,-0.2369,-0.2413,-0.2424,-0.2433,-0.245,-0.2446,-0.2436,-0.2457,-0.2456,-0.2415,-0.2409,-0.2287,-0.227,-0.2464,-0.2463,-0.2463,-0.2383,0,-0.1966,-0.2008,-0.2032,-0.2086,-0.2123,-0.2166,-0.2208,-0.2248,-0.2288,-0.2314,-0.236,-0.239,-0.2417,-0.2435,-0.2445,-0.2454,-0.2446,-0.2459,-0.2439,-0.2454,-0.2416,-0.2411,-0.2462,-0.2461,-0.2461,-0.2461,0,0,-0.1923,-0.1968,-0.2005,-0.2041,-0.2071,-0.2117,-0.2154,-0.2191,-0.2263,-0.2277,-0.2299,-0.2364,-0.2387,-0.2407,-0.2418,-0.244,-0.2431,-0.244,-0.2453,-0.2452,-0.2451,-0.2417,-0.2413,-0.246,-0.246,-0.2459,-0.2459,0,-0.1911,-0.1948,-0.1984,-0.2018,-0.2078,-0.2104,-0.2125,-0.2185,-0.2214,-0.2276,-0.2285,-0.2315,-0.2384,-0.2383,-0.2393,-0.2434,-0.2423,-0.2457,-0.2456,-0.245,-0.245,-0.245,-0.2416,-0.2412,-0.2458,-0.2458,-0.2458,0,-0.1882,-0.1914,-0.1938,-0.1999,-0.2037,-0.2075,-0.209,-0.2146,-0.2178,-0.2198,-0.2261,-0.2286,-0.2306,-0.2349,-0.2373,-0.2364,-0.2403,-0.2415,-0.2418,-0.2399,-0.2391,-0.2391,-0.2392,-0.2383,-0.2383,-0.2382,0,0,-0.1871,-0.1908,-0.1956,-0.1999,-0.2021,-0.2069,-0.2102,-0.2129,-0.2172,-0.2195,-0.2231,-0.2263,-0.229,-0.2315,-0.2342,-0.239,-0.2366,-0.2407,-0.241,-0.2413,-0.2396,-0.2389,-0.239,-0.2382,-0.2382,-0.2382,0,0,-0.1864,-0.1915,-0.1932,-0.198,-0.2025,-0.2071,-0.2107,-0.2132,-0.2182,-0.2191,-0.2213,-0.2224,-0.2277,-0.2288,-0.2275,-0.2337,-0.232,-0.2324,-0.2335,-0.2339,-0.2343,-0.2314,-0.2267,0,0,0,0,0,-0.1875,-0.1906,-0.1921,-0.1934,-0.201,-0.2063,-0.2075,-0.2113,-0.2126,-0.2154,-0.2187,-0.2191,-0.2276,-0.2266,-0.2277,-0.23,-0.2372,-0.2373,-0.2375,-0.2399,-0.2404,-0.2408,0,0,0,0,0,0,-0.188,-0.1895,-0.192,-0.1964,-0.1982,-0.2061,-0.206,-0.2071,-0.2124,-0.2128,-0.2184,-0.2191,-0.2199,-0.2261,-0.2271,-0.2293,-0.2263,-0.2372,-0.2374,-0.2375,-0.2401,-0.2405,-0.2408,0,0,0,0,0,-0.1885,-0.1897,-0.2007,-0.1965,-0.198,-0.2038,-0.2059,-0.2069,-0.2116,-0.2146,-0.2156,-0.2147,-0.2198,-0.221,-0.2267,-0.2288,-0.2256,-0.226,-0.2373,-0.2375,-0.2376,-0.2403,0,0,0,0,0,0,-0.1888,-0.1905,-0.2011,-0.2018,-0.196,-0.2036,-0.2048,-0.2067,-0.2132,-0.2142,-0.2107,-0.2109,-0.2198,-0.2207,-0.2215,-0.2285,-0.2251,-0.2254,-0.2257,-0.2374,-0.2375,-0.2376,0,0,0,0,0,0,-0.1899,-0.191,-0.2014,-0.2007,-0.2013,-0.2033,-0.2044,-0.2083,-0.2132,-0.2089,-0.2092,-0.2107,-0.2185,-0.2205,-0.2212,-0.2272,-0.2246,-0.225,-0.2252,-0.2254,-0.2375,-0.2376,0,0,0,0,0,0,-0.1905,-0.1915,-0.2005,-0.201,-0.2015,-0.2093,-0.2069,-0.2144,-0.2129,-0.2085,-0.2128,-0.2128,-0.2183,-0.219,-0.2209,-0.2266,-0.227,-0.2246,-0.2249,-0.2251,-0.2252,0,0,0,0,0,0,0,-0.191,-0.1834,-0.1973,-0.2012,-0.2017,-0.2081,-0.2083,-0.2084,-0.2129,-0.2129,-0.2128,-0.2128,-0.2226,-0.223,-0.2234,-0.2261,0,0,-0.2246,-0.2248,0,0,0,0,0,0,0,0,-0.1831,-0.1833,-0.1973,-0.1975,-0.1976,-0.2081,-0.2082,-0.2084,-0.2129,-0.2129,-0.2128,-0.2128,-0.2227,-0.223,-0.2233,0,0,0,0,0,0,0,0,0,0,0,0,0,0,0,-0.1973,-0.1974,0,-0.2081,-0.2082,-0.2084,-0.2129,-0.2129,-0.2128,-0.2128,-0.2228,-0.223,-0.2233,0,0,0,0,0,0,0,0,0,0,0,0,0,0,0,0,0,0,0,0,0,0,0,0,0,0,0,0,0,0,0,0,0,0,0,0,0,0,0,0,0,0,0,0,0,0,0,0,0,0,0,0,0,0,0,0,0,0,0,0,0,0,0,0,0,0,0,0,0]}],[{"header":{"parameterUnit":"kt","parameterCategory":2,"dx":1,"dy":1,"la1":30.253999710083008,"la2":30.299108505249023,"lo1":-89.0895004272461,"lo2":-89.04439544677734,"nx":28,"ny":28,"refTime":"2022-09-25T21:00:00:Z","depth":"4","parameterNumber":3,"parameterNumberName":"V-component_of_CURRENTS"},"data":[-0.0813,-0.0892,-0.0923,-0.0897,-0.0903,-0.0886,-0.0892,-0.0902,-0.0861,-0.0861,-0.0758,-0.072,-0.0532,-0.062,-0.0334,-0.03,-0.0253,-0.0088,-0.0085,-0.0032,-0.0036,-0.004,-0.0103,0,0,0,0,0,-0.0797,-0.0853,-0.092,-0.097,-0.0972,-0.098,-0.0997,-0.1015,-0.1012,-0.0921,-0.0902,-0.0762,-0.0554,-0.0477,-0.0344,-0.0329,-0.0174,-0.017,-0.0128,-0.0034,-0.0039,-0.0099,0,0,0,0,0,0,-0.0781,-0.0839,-0.092,-0.0986,-0.1018,-0.0997,-0.1038,-0.1001,-0.0984,-0.092,-0.0887,-0.0737,-0.0666,-0.0475,-0.0341,-0.0212,-0.019,-0.0149,-0.0147,-0.015,-0.0213,-0.0244,-0.0173,0,0,0,0,0,-0.0759,-0.0802,-0.088,-0.0964,-0.1016,-0.1044,-0.1072,-0.1069,-0.1029,-0.1019,-0.09,-0.0776,-0.0629,-0.0469,-0.0323,-0.0195,-0.0136,-0.0082,-0.0085,-0.0121,-0.0134,-0.0117,-0.0125,-0.0057,-0.0057,-0.0058,-0.0058,0,-0.0714,-0.0768,-0.0888,-0.0933,-0.0981,-0.1048,-0.1061,-0.1062,-0.1039,-0.0969,-0.0931,-0.0816,-0.0724,-0.0485,-0.0369,-0.0182,-0.0163,-0.0095,-0.0134,-0.0142,-0.0122,-0.013,-0.0137,-0.0061,-0.0061,-0.0061,-0.0061,0,-0.0687,-0.0739,-0.0836,-0.0921,-0.0948,-0.1001,-0.104,-0.103,-0.1,-0.0954,-0.0934,-0.0822,-0.0691,-0.0562,-0.0407,-0.0329,-0.0206,-0.0162,-0.0232,-0.0209,-0.014,-0.0146,-0.0068,-0.0066,-0.0065,-0.0064,-0.0063,0,-0.0656,-0.0721,-0.0798,-0.0849,-0.0921,-0.0943,-0.0981,-0.097,-0.0932,-0.0903,-0.083,-0.0779,-0.0658,-0.0558,-0.0461,-0.0326,-0.0329,-0.0246,-0.0217,-0.0287,-0.0291,-0.0252,-0.0253,-0.0252,-0.0253,-0.0253,-0.0254,0,-0.0602,-0.0693,-0.0772,-0.08,-0.0861,-0.0891,-0.0911,-0.0885,-0.0876,-0.0819,-0.0787,-0.0712,-0.0661,-0.0578,-0.0455,-0.0463,-0.0326,-0.0321,-0.0245,-0.0242,-0.0257,-0.0257,-0.0255,-0.0255,-0.0255,-0.0256,-0.0256,0,-0.0568,-0.0623,-0.0717,-0.0779,-0.0796,-0.0835,-0.0848,-0.0858,-0.0806,-0.0776,-0.0729,-0.0673,-0.0614,-0.0586,-0.0473,-0.0499,-0.0433,-0.0376,-0.0371,-0.0328,-0.0298,-0.027,-0.0292,-0.0293,-0.0294,-0.0294,-0.0295,0,-0.0506,-0.0597,-0.0613,-0.0695,-0.0741,-0.073,-0.0746,-0.0743,-0.0718,-0.0695,-0.0638,-0.0614,-0.0579,-0.0556,-0.0523,-0.0445,-0.0416,-0.0456,-0.0329,-0.0325,-0.0302,-0.0317,-0.0413,-0.0306,-0.0305,-0.0304,-0.0303,0,-0.0452,-0.0519,-0.0529,-0.0566,-0.0596,-0.0622,-0.0642,-0.0648,-0.0644,-0.063,-0.0616,-0.0591,-0.0546,-0.0527,-0.0484,-0.0455,-0.0428,-0.042,-0.0417,-0.037,-0.0347,-0.0331,-0.0323,-0.0415,-0.0415,-0.0414,-0.0311,0,-0.042,-0.0459,-0.0483,-0.0523,-0.0543,-0.0577,-0.0571,-0.0576,-0.0563,-0.0544,-0.0532,-0.0493,-0.0463,-0.0459,-0.043,-0.0419,-0.0391,-0.0379,-0.0343,-0.0373,-0.0324,-0.0318,-0.0369,-0.0368,-0.0367,-0.0366,0,0,-0.0351,-0.0398,-0.0394,-0.0432,-0.0451,-0.0427,-0.047,-0.0464,-0.0461,-0.0453,-0.0441,-0.0406,-0.0383,-0.0369,-0.0379,-0.0373,-0.0341,-0.0359,-0.0366,-0.0367,-0.0367,-0.0321,-0.0317,-0.0365,-0.0364,-0.0364,-0.0364,0,-0.0335,-0.0345,-0.0382,-0.0395,-0.041,-0.0404,-0.0415,-0.0414,-0.0408,-0.0423,-0.0383,-0.0368,-0.036,-0.0333,-0.0319,-0.0359,-0.0307,-0.036,-0.0389,-0.0359,-0.0361,-0.0362,-0.0318,-0.0315,-0.0361,-0.0361,-0.0361,0,-0.0291,-0.0301,-0.0316,-0.0337,-0.0339,-0.0365,-0.0328,-0.0348,-0.0364,-0.031,-0.0327,-0.0302,-0.0272,-0.028,-0.0282,-0.0264,-0.0268,-0.0281,-0.0286,-0.0279,-0.0245,-0.0248,-0.0251,-0.0216,-0.0215,-0.0215,0,0,-0.0276,-0.0303,-0.0304,-0.0331,-0.0338,-0.0326,-0.0331,-0.0325,-0.0316,-0.0314,-0.0294,-0.0275,-0.0263,-0.0258,-0.0247,-0.0257,-0.022,-0.0265,-0.0272,-0.0277,-0.0274,-0.0242,-0.0245,-0.0214,-0.0214,-0.0214,0,0,-0.0262,-0.0273,-0.0268,-0.0301,-0.0307,-0.0294,-0.0309,-0.0297,-0.0293,-0.0291,-0.0252,-0.0246,-0.0255,-0.0235,-0.0223,-0.0235,-0.0205,-0.0207,-0.0249,-0.0257,-0.0264,-0.0262,-0.0179,0,0,0,0,0,-0.0243,-0.0274,-0.0269,-0.0274,-0.0284,-0.0298,-0.0298,-0.0284,-0.0268,-0.0284,-0.0262,-0.0235,-0.0221,-0.0209,-0.0205,-0.0221,-0.0198,-0.0201,-0.0203,-0.026,-0.0269,-0.0276,0,0,0,0,0,0,-0.0244,-0.025,-0.0268,-0.0258,-0.026,-0.0296,-0.0261,-0.0258,-0.0266,-0.0264,-0.024,-0.0234,-0.0207,-0.0209,-0.0206,-0.0222,-0.018,-0.0199,-0.0201,-0.0204,-0.0263,-0.027,-0.0276,0,0,0,0,0,-0.0245,-0.025,-0.0275,-0.0257,-0.0259,-0.0247,-0.0261,-0.0258,-0.0265,-0.0232,-0.0227,-0.0256,-0.0208,-0.0204,-0.0207,-0.0224,-0.0182,-0.0181,-0.0201,-0.0202,-0.0204,-0.0266,0,0,0,0,0,0,-0.0246,-0.0241,-0.0275,-0.0274,-0.0251,-0.0245,-0.0245,-0.0257,-0.0232,-0.0228,-0.0245,-0.0243,-0.0209,-0.0205,-0.0202,-0.0227,-0.0184,-0.0183,-0.0182,-0.0202,-0.0203,-0.0205,0,0,0,0,0,0,-0.0239,-0.0241,-0.0274,-0.0267,-0.0265,-0.0243,-0.0243,-0.0235,-0.0231,-0.0245,-0.0243,-0.0244,-0.0208,-0.0206,-0.0204,-0.0192,-0.0185,-0.0184,-0.0183,-0.0183,-0.0203,-0.0204,0,0,0,0,0,0,-0.0239,-0.0241,-0.0267,-0.0266,-0.0264,-0.0254,-0.0234,-0.0243,-0.0238,-0.0246,-0.0236,-0.0235,-0.021,-0.0207,-0.0205,-0.0195,-0.0193,-0.0185,-0.0184,-0.0184,-0.0183,0,0,0,0,0,0,0,-0.0239,-0.0234,-0.028,-0.0265,-0.0263,-0.0268,-0.0268,-0.0267,-0.0238,-0.0237,-0.0236,-0.0235,-0.019,-0.0189,-0.0188,-0.0197,0,0,-0.0185,-0.0184,0,0,0,0,0,0,0,0,-0.0233,-0.0234,-0.028,-0.028,-0.028,-0.0268,-0.0268,-0.0267,-0.0237,-0.0237,-0.0236,-0.0236,-0.019,-0.0189,-0.0188,0,0,0,0,0,0,0,0,0,0,0,0,0,0,0,-0.028,-0.028,0,-0.0268,-0.0268,-0.0268,-0.0237,-0.0237,-0.0236,-0.0236,-0.019,-0.0189,-0.0188,0,0,0,0,0,0,0,0,0,0,0,0,0,0,0,0,0,0,0,0,0,0,0,0,0,0,0,0,0,0,0,0,0,0,0,0,0,0,0,0,0,0,0,0,0,0,0,0,0,0,0,0,0,0,0,0,0,0,0,0,0,0,0,0,0,0,0,0,0]}]]]